Weather History for Dumas, TX

Change the Weather History Date:

Saturday, April 21, 2012

  Actual Average (KBGD) Record (KBGD)
Temperature  
Mean Temperature 60 °F 60 °F  
Max Temperature 80 °F 74 °F 92 °F (1960)
Min Temperature 41 °F 47 °F 31 °F (1982)
Degree Days  
Heating Degree Days 4 6  
Month to date heating degree days 180  
Since 1 July heating degree days 3657  
Cooling Degree Days 0 2  
Month to date cooling degree days 19  
Year to date cooling degree days 26  
Growing Degree Days 10 (Base 50)    
Moisture  
Dew Point 36 °F    
Average Humidity 45    
Maximum Humidity 81    
Minimum Humidity 17    
Precipitation  
Precipitation 0.00 in 0.05 in 0.15 in (2007)
Month to date precipitation 1.19  
Year to date precipitation 3.81  
Snow  
Snow 0.00 in - T in (1959)
Month to date snowfall  
Since 1 July snowfall  
Snow Depth -    
Sea Level Pressure  
Sea Level Pressure 30.09 in    
Wind  
Wind Speed 11 mph (SW)    
Max Wind Speed 24 mph    
Max Gust Speed 33 mph    
Visibility 10 miles    
Events      
T = Trace of Precipitation, MM = Missing Value Source: NWS Daily Summary

Daily Weather History Graph

Daily Weather History Graph

Search for Another Location

Airport:

Trip Planner

Search our weather history database for the weather conditions in past years. The results will help you decide how hot, cold, wet, or windy it might be!

Date:

Astronomy

Apr. 21, 2012 Rise Set
Actual Time 7:06 AM CDT 8:27 PM CDT
Civil Twilight 6:40 AM CDT 8:53 PM CDT
Nautical Twilight 6:08 AM CDT 9:25 PM CDT
Astronomical Twilight 5:34 AM CDT 9:59 PM CDT
Moon 7:05 AM CDT (4/21) 9:07 PM CDT (4/21)
Length of Visible Light 14h 13m
Length of Day
13h 20m
New Moon, 0% of the Moon is Illuminated
Apr 21
New Moon
Apr 29
First Quarter
May 5
Full
May 12
Last Quarter
May 20
New

Hourly Weather History & Observations

Time (CDT) Temp. Windchill Dew Point Humidity Pressure Visibility Wind Dir Wind Speed Gust Speed Precip Events Conditions
12:15 AM 48.2 °F - 33.8 °F 58% 30.12 in 10.0 mi SE 8.1 mph - N/A   Clear
12:35 AM 46.4 °F 42.4 °F 33.8 °F 62% 30.12 in 10.0 mi SSE 8.1 mph - N/A   Clear
12:55 AM 44.6 °F 40.2 °F 35.6 °F 71% 30.11 in 10.0 mi South 8.1 mph - N/A   Clear
1:15 AM 44.6 °F 39.2 °F 35.6 °F 71% 30.12 in 10.0 mi South 10.4 mph - N/A   Clear
1:35 AM 44.6 °F 38.8 °F 35.6 °F 71% 30.12 in 10.0 mi South 11.5 mph - N/A   Clear
1:55 AM 44.6 °F 39.7 °F 35.6 °F 71% 30.11 in 10.0 mi South 9.2 mph - N/A   Clear
2:15 AM 44.6 °F 40.2 °F 35.6 °F 71% 30.10 in 10.0 mi SSE 8.1 mph - N/A   Clear
2:35 AM 44.6 °F 40.2 °F 35.6 °F 71% 30.09 in 10.0 mi South 8.1 mph - N/A   Clear
2:55 AM 42.8 °F 37.0 °F 35.6 °F 76% 30.09 in 10.0 mi South 10.4 mph - N/A   Clear
3:15 AM 42.8 °F 37.5 °F 35.6 °F 76% 30.09 in 10.0 mi South 9.2 mph - N/A   Clear
3:35 AM 42.8 °F 37.5 °F 35.6 °F 76% 30.08 in 10.0 mi South 9.2 mph - N/A   Clear
3:55 AM 41.0 °F 35.2 °F 35.6 °F 81% 30.08 in 10.0 mi SSW 9.2 mph - N/A   Clear
4:15 AM 42.8 °F 38.0 °F 35.6 °F 76% 30.08 in 10.0 mi SSW 8.1 mph - N/A   Clear
4:35 AM 44.6 °F 38.4 °F 35.6 °F 71% 30.08 in 10.0 mi SSW 12.7 mph - N/A   Clear
4:55 AM 46.4 °F 40.7 °F 35.6 °F 66% 30.08 in 10.0 mi SW 12.7 mph - N/A   Clear
5:15 AM 46.4 °F 40.4 °F 35.6 °F 66% 30.07 in 10.0 mi SW 13.8 mph - N/A   Clear
5:35 AM 46.4 °F 40.4 °F 35.6 °F 66% 30.07 in 10.0 mi SW 13.8 mph - N/A   Clear
5:55 AM 46.4 °F 41.1 °F 35.6 °F 66% 30.07 in 10.0 mi SW 11.5 mph - N/A   Clear
6:15 AM 44.6 °F 38.4 °F 35.6 °F 71% 30.07 in 10.0 mi SW 12.7 mph - N/A   Clear
6:35 AM 44.6 °F 38.4 °F 35.6 °F 71% 30.07 in 10.0 mi WSW 12.7 mph - N/A   Clear
6:55 AM 44.6 °F 38.4 °F 35.6 °F 71% 30.07 in 10.0 mi WSW 12.7 mph - N/A   Clear
7:15 AM 44.6 °F 38.1 °F 35.6 °F 71% 30.08 in 10.0 mi WSW 13.8 mph - N/A   Clear
7:35 AM 46.4 °F 40.4 °F 37.4 °F 71% 30.08 in 10.0 mi WSW 13.8 mph - N/A   Clear
7:55 AM 46.4 °F 41.5 °F 37.4 °F 71% 30.08 in 10.0 mi WSW 10.4 mph - N/A   Clear
8:15 AM 50.0 °F - 37.4 °F 62% 30.09 in 10.0 mi WSW 13.8 mph - N/A   Clear
8:35 AM 51.8 °F - 37.4 °F 58% 30.09 in 10.0 mi WSW 18.4 mph 23.0 mph N/A   Clear
8:55 AM 53.6 °F - 37.4 °F 54% 30.09 in 10.0 mi WSW 24.2 mph 28.8 mph N/A   Clear
9:15 AM 55.4 °F - 37.4 °F 51% 30.10 in 10.0 mi WSW 21.9 mph 33.4 mph N/A   Clear
9:35 AM 59.0 °F - 37.4 °F 45% 30.10 in 10.0 mi WSW 23.0 mph 33.4 mph N/A   Clear
9:55 AM 60.8 °F - 37.4 °F 42% 30.10 in 10.0 mi WSW 20.7 mph 24.2 mph N/A   Clear
10:15 AM 62.6 °F - 37.4 °F 39% 30.10 in 10.0 mi WSW 23.0 mph 26.5 mph N/A   Clear
10:35 AM 62.6 °F - 37.4 °F 39% 30.10 in 10.0 mi WSW 18.4 mph - N/A   Clear
10:55 AM 64.4 °F - 37.4 °F 37% 30.10 in 10.0 mi WSW 16.1 mph 24.2 mph N/A   Clear
11:15 AM 64.4 °F - 37.4 °F 37% 30.09 in 10.0 mi SW 16.1 mph 21.9 mph N/A   Clear
11:35 AM 68.0 °F - 37.4 °F 33% 30.10 in 10.0 mi WSW 15.0 mph 19.6 mph N/A   Clear
11:55 AM 69.8 °F - 37.4 °F 31% 30.10 in 10.0 mi WSW 13.8 mph 19.6 mph N/A   Clear
12:15 PM 69.8 °F - 37.4 °F 31% 30.10 in 10.0 mi West 13.8 mph 17.3 mph N/A   Clear
12:35 PM 71.6 °F - 37.4 °F 29% 30.09 in 10.0 mi West 11.5 mph - N/A   Clear
12:55 PM 71.6 °F - 37.4 °F 29% 30.09 in 10.0 mi WNW 5.8 mph - N/A   Clear
1:15 PM 73.4 °F - 39.2 °F 29% 30.08 in 10.0 mi WSW 5.8 mph - N/A   Clear
1:35 PM 73.4 °F - 35.6 °F 25% 30.08 in 10.0 mi Calm Calm - N/A   Clear
1:55 PM 77.0 °F - 35.6 °F 22% 30.07 in 10.0 mi East 6.9 mph - N/A   Clear
2:15 PM 77.0 °F - 35.6 °F 22% 30.07 in 10.0 mi North 5.8 mph 9.2 mph N/A   Clear
2:35 PM 78.8 °F - 35.6 °F 21% 30.07 in 10.0 mi NNW 11.5 mph - N/A   Scattered Clouds
2:55 PM 78.8 °F - 35.6 °F 21% 30.07 in 10.0 mi North 10.4 mph 18.4 mph N/A   Scattered Clouds
3:15 PM 78.8 °F - 33.8 °F 20% 30.07 in 10.0 mi North 11.5 mph 24.2 mph N/A   Clear
3:35 PM 80.6 °F - 32.0 °F 17% 30.06 in 10.0 mi NNE 8.1 mph 18.4 mph N/A   Clear
3:55 PM 80.6 °F - 32.0 °F 17% 30.06 in 10.0 mi North 9.2 mph 18.4 mph N/A   Clear
4:15 PM 80.6 °F - 32.0 °F 17% 30.05 in 10.0 mi North 11.5 mph 21.9 mph N/A   Clear
4:35 PM 80.6 °F - 32.0 °F 17% 30.05 in 10.0 mi NNE 12.7 mph - N/A   Scattered Clouds
4:55 PM 80.6 °F - 33.8 °F 18% 30.05 in 10.0 mi North 13.8 mph 23.0 mph N/A   Scattered Clouds
5:15 PM 78.8 °F - 33.8 °F 20% 30.05 in 10.0 mi North 12.7 mph - N/A   Clear
5:35 PM 78.8 °F - 33.8 °F 20% 30.05 in 10.0 mi NNE 13.8 mph 21.9 mph N/A   Clear
5:55 PM 78.8 °F - 33.8 °F 20% 30.06 in 10.0 mi NNE 13.8 mph - N/A   Clear
6:15 PM 78.8 °F - 33.8 °F 20% 30.06 in 10.0 mi North 11.5 mph - N/A   Clear
6:35 PM 77.0 °F - 35.6 °F 22% 30.07 in 10.0 mi NNE 11.5 mph - N/A   Clear
6:55 PM 77.0 °F - 35.6 °F 22% 30.07 in 10.0 mi NNE 15.0 mph 19.6 mph N/A   Clear
7:15 PM 75.2 °F - 35.6 °F 24% 30.07 in 10.0 mi NNE 11.5 mph - N/A   Clear
7:35 PM 73.4 °F - 35.6 °F 25% 30.07 in 10.0 mi NNE 10.4 mph - N/A   Clear
7:55 PM 71.6 °F - 35.6 °F 27% 30.07 in 10.0 mi NE 8.1 mph - N/A   Clear
8:15 PM 69.8 °F - 35.6 °F 28% 30.08 in 10.0 mi ENE 9.2 mph - N/A   Clear
8:35 PM 68.0 °F - 35.6 °F 30% 30.08 in 10.0 mi ENE 10.4 mph - N/A   Clear
8:55 PM 64.4 °F - 37.4 °F 37% 30.08 in 10.0 mi East 9.2 mph - N/A   Clear
9:15 PM 64.4 °F - 39.2 °F 40% 30.09 in 10.0 mi East 13.8 mph - N/A   Clear
9:35 PM 64.4 °F - 37.4 °F 37% 30.10 in 10.0 mi East 12.7 mph - N/A   Clear
9:55 PM 64.4 °F - 39.2 °F 40% 30.11 in 10.0 mi East 12.7 mph - N/A   Clear
10:15 PM 62.6 °F - 39.2 °F 42% 30.13 in 10.0 mi ENE 13.8 mph - N/A   Clear
10:35 PM 62.6 °F - 41.0 °F 45% 30.13 in 10.0 mi East 12.7 mph - N/A   Clear
10:55 PM 62.6 °F - 41.0 °F 45% 30.14 in 10.0 mi East 11.5 mph - N/A   Clear
11:35 PM 60.8 °F - 41.0 °F 48% 30.15 in 10.0 mi East 12.7 mph - N/A   Clear
11:55 PM 59.0 °F - 41.0 °F 51% 30.15 in 10.0 mi ESE 8.1 mph - N/A   Clear